Location: Wells
(51.2093°N, 2.6446°W)
Time: 08:57:50
(UTC+01:00)

SO-50 - Pass Details

Date: 14 March 2026
Orbit: 567 x 673 km, 64.6° (Epoch: 17 April)

Event Time Altitude Azimuth Distance (km) Brightness Sun altitude
Rises 21:19:46 0° 276° (W) 2,982 ? -28.3°
Reaches altitude 10° 21:22:36 10° 293° (WNW) 2,087 ? -28.6°
Maximum altitude 21:26:10 21° 342° (NNW) 1,517 ? -29.1°
Enters shadow 21:29:23 12° 27° (NNE) 2,009 ? -29.5°
